Other Public Products
Issued by NWS Grand Forks, ND

Home | Current Version | Previous Version | Graphics & Text | Print | Product List | Glossary Off
Versions: 1 2 3 4 5 6 7 8 9 10 11 12 13 14 15 16 17 18 19 20 21 22 23 24 25 26 27 28 29 30 31 32 33 34 35 36 37 38 39 40 41 42 43 44 45 46 47 48 49 50

000
FPUS83 KFGF 221031
OPUFGF
PRAIRIE TO PINES WEATHER ROUNDUP
NATIONAL WEATHER SERVICE EASTERN NORTH DAKOTA/GRAND FORKS ND
500 AM CDT FRI AUG 22 2014

 **SATELLITE DATA USED TO AUGMENT SKY COVER AT AUTOMATED STATIONS**
 *****  WEATHER ACROSS EASTERN NORTH DAKOTA  *****

CITY           SKY/WX    TMP DP  RH WIND       PRES   REMARKS
GRAND FORKS    CLOUDY    68  67  96 NW9       29.92R
GRAND FORKS AF CLOUDY    67  67 100 N8        29.94R
GRAND CITY NWS   N/A     64 N/A N/A N2          N/A
BUXTON           N/A     68  67  99 NW8         N/A
DEVILS LAKE    CLOUDY    64  59  82 N12       29.98R
FARGO          FOG       66  65  96 NW5       29.92R VSB 1/4
WAHPETON ARPT  CLOUDY    68  64  88 CALM      29.93R VSB 1/4
$$

 *****  WEATHER ACROSS CENTRAL AND WESTERN NORTH DAKOTA  *****

CITY           SKY/WX    TMP DP  RH WIND       PRES   REMARKS
JAMESTOWN      MOCLDY    67  66  97 NW6       29.97R
BISMARCK       LGT RAIN  66  64  93 CALM      30.02S
MINOT          CLOUDY    61  59  93 N9        30.02R FOG
MINOT AFB      LGT RAIN  60  60 100 N12       30.03R
GARRISON         N/A     64  63  96 NE3       30.02R
WILLISTON      CLOUDY    62  57  83 NE7       30.06R
DICKINSON      CLOUDY    63  61  93 E3        30.03R FOG
HETTINGER      RAIN      61  59  93 E12       30.02F FOG
$$

 *****  OTHER OBSERVATIONS NORTHEAST NORTH DAKOTA  *****

CITY           SKY/WX    TMP DP  RH WIND       PRES   REMARKS
WALHALLA         N/A     63  63 100 N9        29.97S FOG
LANGDON        CLOUDY    63  61  94 N13       29.99S
CAVALIER       FOG       64  64 100 N12       29.96R VSB 1
GRAFTON        CLOUDY    66  66 100 N8        29.93S
CANDO          CLOUDY    63  61  94 N10       30.01R
FORT TOTTEN      N/A     65  64  96 N6        29.95S
ROLLA          CLOUDY    59  59 100 N8        30.04R FOG
RUGBY          PTSUNNY   63  63 100 NE7       30.02R
 ***** THE ABOVE OBSERVATIONS ARE NON NWS ARE NOT QUALITY
        CONTROLLED AND MAY MIS-REPORT RAIN FOR SNOW...
$$

 *****  OTHER OBSERVATIONS SOUTHEAST NORTH DAKOTA *****

CITY           SKY/WX    TMP DP  RH WIND       PRES   REMARKS
COOPERSTOWN    NOT AVBL
VALLEY CITY    CLOUDY    66  66 100 N8        29.95R FOG
OAKES          NOT AVBL
GWINNER        SUNNY     66  66 100 CALM      29.95R
SHEYENNE NWR     N/A     66  66 100 N3        29.95S
BUFFALO          N/A     66  63  91 N5          N/A
WYNDMERE       NOT AVBL
 ***** THE ABOVE OBSERVATIONS ARE NON NWS ARE NOT QUALITY
       CONTROLLED AND MAY MIS-REPORT RAIN FOR SNOW...
$$

  *****  WEATHER ACROSS NORTHERN MINNESOTA  *****

CITY           SKY/WX    TMP DP  RH WIND       PRES   REMARKS
FLAG ISLAND    CLOUDY    66  64  94 NE6       29.94R
WARROAD        CLOUDY    66  64  94 E3        29.94R
ROSEAU         CLOUDY    66  61  82 CALM      29.94R
HALLOCK        MOCLDY    66  64  94 CALM      29.93S
THF RVR FALLS  CLOUDY    66  66 100 CALM      29.92S
HALSTAD          N/A     66  64  95 CALM        N/A
FOSSTON        HVY RAIN  66  63  88 CALM      29.93S
BAUDETTE       CLOUDY    65  62  90 E5        29.93S
WASKISH        CLOUDY    64  64 100 CALM      29.94R
CROOKSTON      FOG       68  66  94 NW3       29.92R VSB 1/4
$$
  *****  WEATHER ACROSS CENTRAL AND WEST MINNESOTA  *****

CITY           SKY/WX    TMP DP  RH WIND       PRES   REMARKS
BEMIDJI        CLOUDY    65  65  97 CALM      29.94R FOG
PARK RAPIDS    CLOUDY    67  67 100 E5        29.94R
WADENA         CLOUDY    66  66 100 CALM      29.94R FOG
DETROIT LAKES  CLOUDY    68  66  94 CALM      29.94R FOG
MOORHEAD       FOG       64  64 100 CALM      29.92R VSB 1/4
FERGUS FALLS   CLOUDY    68  66  94 CALM      29.93R
ELBOW LAKE     CLOUDY    67  67  99 SE3       29.92S
MORRIS MN      FOG       68  66  94 E5        29.92R VSB<1/4
STAPLES        CLOUDY    66  64  94 CALM      29.94R
WHEATON        FOG       63  63 100 CALM      29.94R VSB 1/4
$$
  *****  WEATHER ELSEWHERE ACROSS MINNESOTA  *****

CITY           SKY/WX    TMP DP  RH WIND       PRES   REMARKS
DULUTH         DRZL/FOG  63  61  93 SE5       29.93R VSB 1/2
INTRNTL FALLS  CLOUDY    64  60  87 E5        29.95R
ELY            CLOUDY    61  61 100 NE3       29.95R FOG
CLOQUET        CLOUDY    61  61 100 CALM      29.94R FOG
BRAINERD       CLOUDY    64  64 100 CALM      29.94R FOG
HIBBING        CLOUDY    65  61  87 CALM      29.93S
ALEXANDRIA     CLOUDY    68  67  96 CALM      29.95S FOG
SAINT CLOUD    FOG       69  68  96 N3        29.92R VSB 3/4
MINNEAPOLIS    CLOUDY    72  71  97 NW5       29.90R
$$

  *****  WEATHER ACROSS SOUTH DAKOTA  *****

CITY           SKY/WX    TMP DP  RH WIND       PRES   REMARKS
SIOUX FALLS    PTCLDY    64  63  96 N3        29.93R
BROOKINGS      NOT AVBL
WATERTOWN      FOG       61  61 100 CALM      29.93S VSB<1/4
HURON          FOG       58  57  97 CALM      29.91S VSB 1/2
SISSETON         N/A     63  63 100 N3        29.90S
ABERDEEN       PTCLDY    61  61 100 NW6       29.95R
MITCHELL       CLEAR     64  63  96 CALM      29.92R FOG
PIERRE         MOCLDY    66  65  96 N9        29.95R
MOBRIDGE       RAIN      63  62  97 NE10      29.98F FOG
RAPID CITY     MOCLDY    62  60  93 N17       30.02F
$$

  *****  SOME WEATHER IN NEARBY STATES *****

CITY           SKY/WX    TMP DP  RH WIND       PRES   REMARKS
GLASGOW MT     CLOUDY    60  57  89 NE15      30.07R
GREAT FALLS MT LGT RAIN  51  50  96 NE9       30.13S
CHEYENNE WY    CLOUDY    60  47  61 CALM      30.17S
SCOTTSBLUFF NE CLOUDY    65  53  65 N7        30.07R
OMAHA NE       MOCLDY    74  69  85 SE5       29.89S
DES MOINES IA  LGT RAIN  74  69  85 SW16      29.84F
DAVENPORT IA   MOCLDY    73  71  93 S3        29.89R
CHICAGO IL     MOCLDY    73  69  87 S6        29.91R
EAU CLAIRE WI  CLOUDY    71  70  96 CALM      29.87R
LA CROSSE WI   CLOUDY    74  71  91 S6        29.87R
$$

  *****  SOME NATIONAL WEATHER *****

CITY           SKY/WX    TMP DP  RH WIND       PRES   REMARKS
LA GUARDIA NY  PTCLDY    68  64  87 E6        30.00S
RALEIGH NC     MOCLDY    72  69  90 CALM      30.01R
ATLANTA GA     CLEAR     74  69  85 NW5       30.07F
NEW ORLEANS LA PTCLDY    76  72  87 N3        30.09R
OKLAHOMA CITY  PTCLDY    73  65  75 S13       29.96S
ALBUQUERQUE NM CLOUDY    71  47  42 CALM      30.15R
SALT LAKE CITY MOCLDY    65  49  56 S6        29.98S
LOS ANGELES CA FAIR      68  62  81 W7        29.95S
BOISE ID       FAIR      66  38  35 SE6       29.88R
SEATTLE WA     FAIR      59  52  77 NE7       30.02R
$$

*** WEATHER ACROSS MANITOBA...SASKATCHEWAN AND ONTARIO ***
                ***ONTARIO***

CITY           SKY/WX    TMP DP  RH WIND       PRES   REMARKS
GERALDTON      PTCLDY    61  61 100 SE2       30.01S
THUNDER BAY    CLOUDY    59  59 100 E6        29.98R
SIOUX LOOKOUT  MOCLDY    61  61 100 SE3       29.98R
TORONTO        CLOUDY    63  63 100 N8        29.97S
BIG TROUT LK   CLOUDY    64  61  88 S8        29.95S
PICKLE LAKE    NOT AVBL
DRYDEN         CLOUDY    63  63 100 CALM      29.98R
KENORA         CLOUDY    63  63 100 NE3       29.97S
$$
                *** MANITOBA***

CITY           SKY/WX    TMP DP  RH WIND       PRES   REMARKS
BRANDON        CLOUDY    61  57  88 N6        30.05R
DAUPHIN        CLOUDY    59  57  94 NW7       30.07S
ISLAND LAKE    DRIZZLE  N/A N/A N/A N10         N/A
PILOT MOUND      N/A     61  59  94 N9          N/A
THE PAS        CLOUDY    59  52  77 NE5       30.14R
THOMPSON       CLOUDY    52  52 100 N5        30.14
WINNIPEG       CLOUDY    63  61  94 N7        29.96R
LYNN LAKE      CLOUDY    50  48  93 MISG      30.21R
CHURCHILL      CLOUDY    48  45  87 N21G28    30.11R
GILLAM         CLOUDY    48  48 100 N14       30.09R
$$
                ***SASKATCHEWAN***

CITY           SKY/WX    TMP DP  RH WIND       PRES   REMARKS
ESTEVAN        MOCLDY    57  55  94 NE5       30.09S
KINDERSLEY     PTCLDY    46  45  93 NE7       30.22S
LLOYDMINSTER   CLOUDY    48  45  87 N6        30.27R
PRINCE ALBERT  MOCLDY    54  48  82 VRB2      30.21R
REGINA         CLOUDY    59  55  88 N8        30.14R


USA.gov is the U.S. government's official web portal to all federal, state and local government web resources and services.